QPF
0.00 0.00 0.00 0.00 0.00 0.00 0.00 0.00 0.00 0.00 0.00 0.00 0.00 0.00 0.00 0.00 0.00 0.00 0.00 0.00 0.00 0.00 0.00 0.00 0.00 0.00 0.00 0.00 0.00 0.00 0.00 0.00 0.00 0.00 0.00 0.00 0.00 0.00 0.00 0.00 0.00 0.00 0.00 0.00 0.00 0.00 0.00 0.00 0.00
0.00 0.00 0.00 0.00 0.00 0.00 0.00 0.00 0.00 0.00 0.00 0.00 0.00 0.00 0.00 0.00 0.00 0.00 0.00 0.00 0.00 0.00 0.00 0.00 0.00 0.00 0.00 0.00 0.00 0.00 0.00 0.00 0.00 0.00 0.00 0.00 0.00 0.00 0.00 0.00 0.00 0.00 0.00 0.00 0.00 0.00 0.00 0.00 0.00
0.00 0.00 0.00 0.00 0.00 0.00 0.00 0.00 0.00 0.00 0.00 0.00 0.00 0.00 0.00 0.00 0.00 0.00 0.00 0.00 0.00 0.00 0.00 0.00 0.00 0.00 0.00 0.00 0.00 0.00 0.00 0.00 0.00 0.00 0.00 0.00 0.00 0.00 0.00 0.00 0.00 0.00 0.00 0.00 0.00 0.00 0.00 0.00 0.00
0.00 0.00 0.00 0.00 0.00 0.00 0.00 0.00 0.00 0.00 0.00 0.00 0.00 0.00 0.00 0.00 0.00 0.00 0.00 0.00 0.00 0.00 0.00 0.00 0.00 0.00 0.00 0.00 0.00 0.00 0.00 0.00 0.00 0.00 0.00 0.00 0.00 0.00 0.00 0.00 0.00 0.00 0.00 0.00 0.00 0.00 0.00 0.00 0.00
0.00 0.00 0.00 0.00 0.00 0.00 0.00 0.00 0.00 0.00 0.00 0.00 0.00 0.00 0.00 0.00 0.00 0.00 0.00 0.00 0.00 0.00 0.00 0.00 0.00 0.00 0.00 0.00 0.00 0.00 0.00 0.00 0.00 0.00 0.00 0.00 0.00 0.00 0.00 0.00 0.00 0.00 0.00 0.00 0.00 0.00 0.00 0.00 0.00
0.00 0.00 0.00 0.00 0.00 0.00 0.00 0.00 0.00 0.00 0.00 0.00 0.00 0.00 0.00 0.00 0.00 0.00 0.00 0.00 0.00 0.00 0.00 0.00 0.00 0.00 0.00 0.00 0.00 0.00 0.00 0.00 0.00 0.00 0.00 0.00 0.00 0.00 0.00 0.00 0.00 0.00 0.00 0.00 0.00 0.00 0.00 0.00 0.00
0.00 0.00 0.00 0.00 0.00 0.00 0.00 0.00 0.00 0.00 0.00 0.00 0.00 0.00 0.00 0.00 0.00 0.00 0.00 0.00 0.00 0.00 0.00 0.00 0.00 0.00 0.00 0.00 0.00 0.00 0.00 0.00 0.00 0.00 0.00 0.00 0.00 0.00 0.00 0.00 0.00 0.00 0.00 0.00 0.00 0.00 0.00 0.00 0.00
0.00 0.00 0.00 0.00 0.00 0.00 0.00 0.00 0.00 0.00 0.00 0.00 0.00 0.00 0.00 0.00 0.00 0.00 0.00 0.00 0.00 0.00 0.00 0.00 0.00 0.00 0.00 0.00 0.00 0.00 0.00 0.00 0.00 0.00 0.00 0.00 0.00 0.00 0.00 0.00 0.00 0.00 0.00 0.00 0.00 0.00 0.00 0.00 0.00
0.00 0.00 0.00 0.00 0.00 0.00 0.00 0.00 0.00 0.00 0.00 0.00 0.00 0.00 0.00 0.00 0.00 0.00 0.00 0.00 0.00 0.00 0.00 0.00 0.00 0.00 0.00 0.00 0.00 0.00 0.00 0.00 0.00 0.00 0.00 0.00 0.00 0.00 0.00 0.00 0.00 0.00 0.00 0.00 0.00 0.00 0.00 0.00 0.00
0.00 0.00 0.00 0.00 0.00 0.00 0.00 0.00 0.00 0.00 0.00 0.00 0.00 0.00 0.00 0.00 0.00 0.00 0.00 0.00 0.00 0.00 0.00 0.00 0.00 0.00 0.00 0.00 0.00 0.00 0.00 0.00 0.00 0.00 0.00 0.00 0.00 0.00 0.00 0.00 0.00 0.00 0.00 0.00 0.00 0.00 0.00 0.00 0.00
0.00 0.00 0.00 0.00 0.00 0.00 0.00 0.00 0.00 0.00 0.00 0.00 0.00 0.00 0.00 0.00 0.00 0.00 0.00 0.00 0.00 0.00 0.00 0.00 0.00 0.00 0.00 0.00 0.00 0.00 0.00 0.00 0.00 0.00 0.00 0.00 0.00 0.00 0.00 0.00 0.00 0.00 0.00 0.00 0.00 0.00 0.00 0.00 0.00
0.00 0.00 0.00 0.00 0.00 0.00 0.00 0.00 0.00 0.00 0.00 0.00 0.00 0.00 0.00 0.00 0.00 0.00 0.00 0.00 0.00 0.00 0.00 0.00 0.00 0.00 0.00 0.00 0.00 0.00 0.00 0.00 0.00 0.00 0.00 0.00 0.00 0.00 0.00 0.00 0.00 0.00 0.00 0.00 0.00 0.00 0.00 0.00 0.00
0.00 0.00 0.00 0.00 0.00 0.00 0.00 0.00 0.00 0.00 0.00 0.00 0.00 0.00 0.00 0.00 0.00 0.00 0.00 0.00 0.00 0.00 0.00 0.00 0.00 0.00 0.00 0.00 0.00 0.00 0.00 0.00 0.00 0.00 0.00 0.00 0.00 0.00 0.00 0.00 0.00 0.00 0.00 0.00 0.00 0.00 0.00 0.00 0.00
0.00 0.00 0.00 0.00 0.00 0.00 0.00 0.00 0.00 0.00 0.00 0.00 0.00 0.00 0.00 0.00 0.00 0.00 0.00 0.00 0.00 0.00 0.00 0.00 0.00 0.00 0.00 0.00 0.00 0.00 0.00 0.00 0.00 0.00 0.00 0.00 0.00 0.00 0.00 0.00 0.00 0.00 0.00 0.00 0.00 0.00 0.00 0.00 0.00
0.00 0.00 0.00 0.00 0.00 0.00 0.00 0.00 0.00 0.00 0.00 0.00 0.00 0.00 0.00 0.00 0.00 0.00 0.00 0.00 0.00 0.00 0.00 0.00 0.00 0.00 0.00 0.00 0.00 0.00 0.00 0.00 0.00 0.00 0.00 0.00 0.00 0.00 0.00 0.00 0.00 0.00 0.00 0.00 0.00 0.00 0.00 0.00 0.00
0.00 0.00 0.00 0.00 0.00 0.00 0.00 0.00 0.00 0.00 0.00 0.00 0.00 0.00 0.00 0.00 0.00 0.00 0.00 0.00 0.00 0.00 0.00 0.00 0.00 0.00 0.00 0.00 0.00 0.00 0.00 0.00 0.00 0.00 0.00 0.00 0.00 0.00 0.00 0.00 0.00 0.00 0.00 0.00 0.00 0.00 0.00 0.00 0.00
0.00 0.00 0.00 0.00 0.00 0.00 0.00 0.00 0.00 0.00 0.00 0.00 0.00 0.00 0.00 0.00 0.00 0.00 0.00 0.00 0.00 0.00 0.00 0.00 0.00 0.00 0.00 0.00 0.00 0.00 0.00 0.00 0.00 0.00 0.00 0.00 0.00 0.00 0.00 0.00 0.00 0.00 0.00 0.00 0.00 0.00 0.00 0.00 0.00
0.00 0.00 0.00 0.00 0.00 0.00 0.00 0.00 0.00 0.00 0.00 0.00 0.00 0.00 0.00 0.00 0.00 0.00 0.00 0.00 0.00 0.00 0.00 0.00 0.00 0.00 0.00 0.00 0.00 0.00 0.00 0.00 0.00 0.00 0.00 0.00 0.00 0.00 0.00 0.00 0.00 0.00 0.00 0.00 0.00 0.00 0.00 0.00 0.00
0.00 0.00 0.00 0.00 0.00 0.00 0.00 0.00 0.00 0.00 0.00 0.00 0.00 0.00 0.00 0.00 0.00 0.00 0.00 0.00 0.00 0.00 0.00 0.00 0.00 0.00 0.00 0.00 0.00 0.00 0.00 0.00 0.00 0.00 0.00 0.00 0.00 0.00 0.00 0.00 0.00 0.00 0.00 0.00 0.00 0.00 0.00 0.00 0.00
0.00 0.00 0.00 0.00 0.00 0.00 0.00 0.00 0.00 0.00 0.00 0.00 0.00 0.00 0.00 0.00 0.00 0.00 0.00 0.00 0.00 0.00 0.00 0.00 0.00 0.00 0.00 0.00 0.00 0.00 0.00 0.00 0.00 0.00 0.00 0.00 0.00 0.00 0.00 0.00 0.00 0.00 0.00 0.00 0.00 0.00 0.00 0.00 0.00
0.00 0.00 0.00 0.00 0.00 0.00 0.00 0.00 0.00 0.00 0.00 0.00 0.00 0.00 0.00 0.00 0.00 0.00 0.00 0.00 0.00 0.00 0.00 0.00 0.00 0.00 0.00 0.00 0.00 0.00 0.00 0.00 0.00 0.00 0.00 0.00 0.00 0.00 0.00 0.00 0.00 0.00 0.00 0.00 0.00 0.00 0.00 0.00 0.00
0.00 0.00 0.00 0.00 0.00 0.00 0.00 0.00 0.00 0.00 0.00 0.00 0.00 0.00 0.00 0.00 0.00 0.00 0.00 0.00 0.00 0.00 0.00 0.00 0.00 0.00 0.00 0.00 0.00 0.00 0.00 0.00 0.00 0.00 0.00 0.00 0.00 0.00 0.00 0.00 0.00 0.00 0.00 0.00 0.00 0.00 0.00 0.00 0.00
0.00 0.00 0.00 0.00 0.00 0.00 0.00 0.00 0.00 0.00 0.00 0.00 0.00 0.00 0.00 0.00 0.00 0.00 0.00 0.00 0.00 0.00 0.00 0.00 0.00 0.00 0.00 0.00 0.00 0.00 0.00 0.00 0.00 0.00 0.00 0.00 0.00 0.00 0.00 0.00 0.00 0.00 0.00 0.00 0.00 0.00 0.00 0.00 0.00
0.00 0.00 0.00 0.00 0.00 0.00 0.00 0.00 0.00 0.00 0.00 0.00 0.00 0.00 0.00 0.00 0.00 0.00 0.00 0.00 0.00 0.00 0.00 0.00 0.00 0.00 0.00 0.00 0.00 0.00 0.00 0.00 0.00 0.00 0.00 0.00 0.00 0.00 0.00 0.00 0.00 0.00 0.00 0.00 0.00 0.00 0.00 0.00 0.00
0.00 0.00 0.00 0.00 0.00 0.00 0.00 0.00 0.00 0.00 0.00 0.00 0.00 0.00 0.00 0.00 0.00 0.00 0.00 0.00 0.00 0.00 0.00 0.00 0.00 0.00 0.00 0.00 0.00 0.00 0.00 0.00 0.00 0.00 0.00 0.00 0.00 0.00 0.00 0.00 0.00 0.00 0.00 0.00 0.00 0.00 0.00 0.00 0.00
0.01 0.03 0.01 0.00 0.00 0.00 0.00 0.00 0.00 0.00 0.00 0.00 0.00 0.00 0.00 0.00 0.00 0.00 0.00 0.00 0.00 0.00 0.00 0.00 0.00 0.00 0.00 0.00 0.00 0.00 0.00 0.00 0.00 0.00 0.00 0.00 0.00 0.00 0.00 0.00 0.00 0.00 0.00 0.00 0.00 0.00 0.00 0.00 0.00
0.02 0.02 0.00 0.00 0.00 0.00 0.00 0.00 0.00 0.00 0.00 0.00 0.00 0.00 0.00 0.00 0.00 0.00 0.00 0.00 0.00 0.00 0.00 0.00 0.00 0.00 0.00 0.00 0.00 0.00 0.00 0.00 0.00 0.00 0.00 0.00 0.00 0.00 0.00 0.00 0.00 0.00 0.00 0.00 0.00 0.00 0.00 0.00 0.00
0.00 0.00 0.01 0.03 0.02 0.00 0.00 0.00 0.00 0.00 0.00 0.00 0.00 0.00 0.00 0.00 0.00 0.00 0.00 0.00 0.00 0.00 0.00 0.00 0.00 0.00 0.00 0.00 0.00 0.00 0.00 0.00 0.00 0.00 0.00 0.00 0.00 0.00 0.00 0.00 0.00 0.00 0.00 0.00 0.00 0.00 0.00 0.00 0.00
0.00 0.00 0.00 0.01 0.03 0.02 0.00 0.00 0.00 0.00 0.00 0.00 0.00 0.00 0.00 0.00 0.00 0.00 0.00 0.00 0.00 0.00 0.00 0.00 0.00 0.00 0.00 0.00 0.00 0.00 0.00 0.00 0.00 0.00 0.00 0.00 0.00 0.00 0.00 0.00 0.00 0.00 0.00 0.00 0.00 0.00 0.00 0.00 0.00
0.00 0.01 0.02 0.02 0.01 0.02 0.04 0.02 0.00 0.00 0.00 0.00 0.00 0.00 0.00 0.00 0.00 0.00 0.00 0.00 0.00 0.00 0.00 0.00 0.00 0.00 0.00 0.00 0.00 0.00 0.00 0.00 0.00 0.00 0.00 0.00 0.00 0.00 0.00 0.00 0.00 0.00 0.00 0.00 0.00 0.00 0.00 0.00 0.00
MSLP
1009.75 1009.64 1010.22 1010.30 1010.95 1010.04 1008.18 1006.22 1005.13 1003.69 1002.61 1002.86 1002.93 1003.90 1005.57 1005.93 1006.81 1009.54 1009.87 1010.11 1011.13 1012.21 1012.75 1013.03 1013.52 1013.92 1014.60 1015.26 1015.76 1016.21 1016.44 1016.68 1017.01 1017.28 1017.44 1017.64 1017.87 1018.11 1018.29 1018.50 1018.69 1018.85 1018.97 1019.11 1019.27 1019.43 1019.61 1019.82 1019.98
1009.63 1009.41 1009.83 1009.68 1010.10 1009.25 1006.87 1005.10 1003.85 1003.23 1002.41 1002.83 1003.47 1004.42 1005.22 1006.80 1007.10 1009.15 1010.04 1010.96 1010.94 1011.91 1012.64 1013.06 1013.61 1014.06 1014.61 1015.39 1015.84 1016.36 1016.63 1016.82 1017.15 1017.48 1017.82 1017.94 1018.13 1018.31 1018.55 1018.79 1018.94 1019.13 1019.30 1019.47 1019.66 1019.82 1020.01 1020.16 1020.27
1009.42 1009.43 1010.16 1009.74 1009.00 1007.94 1006.34 1004.24 1004.17 1003.03 1002.40 1002.42 1003.65 1004.17 1005.47 1006.89 1007.83 1008.72 1009.71 1010.87 1011.08 1011.91 1012.59 1013.04 1013.66 1014.17 1014.69 1015.42 1015.93 1016.41 1016.87 1017.05 1017.28 1017.68 1017.99 1018.24 1018.44 1018.69 1018.84 1018.93 1019.12 1019.34 1019.51 1019.69 1020.00 1020.25 1020.37 1020.40 1020.52
1009.52 1009.55 1009.71 1009.31 1008.30 1006.04 1005.32 1004.09 1002.44 1002.40 1002.50 1002.49 1003.58 1005.10 1005.72 1005.95 1006.93 1008.31 1009.88 1010.51 1011.30 1011.96 1012.62 1013.19 1013.67 1014.22 1014.73 1015.28 1016.06 1016.40 1016.86 1017.17 1017.48 1017.83 1018.13 1018.39 1018.63 1018.88 1019.14 1019.34 1019.43 1019.54 1019.62 1019.87 1020.22 1020.44 1020.61 1020.70 1020.83
1009.18 1009.51 1010.04 1009.36 1007.25 1005.42 1004.18 1003.72 1001.89 1001.51 1001.67 1003.22 1003.54 1005.79 1006.48 1006.85 1007.30 1008.54 1009.60 1010.41 1011.25 1012.27 1012.82 1013.40 1013.76 1014.26 1014.82 1015.19 1015.87 1016.54 1016.91 1017.18 1017.45 1017.83 1018.19 1018.52 1018.78 1019.02 1019.32 1019.56 1019.74 1019.93 1020.12 1020.29 1020.49 1020.63 1020.74 1020.81 1020.96
1010.37 1010.05 1010.31 1009.66 1007.41 1004.98 1003.96 1001.94 1001.31 1001.07 1001.71 1003.06 1003.94 1005.53 1007.10 1007.40 1007.80 1008.62 1009.39 1010.43 1011.44 1012.06 1012.85 1013.48 1013.90 1014.36 1014.83 1015.32 1015.74 1016.32 1016.94 1017.16 1017.46 1017.87 1018.20 1018.50 1018.84 1019.15 1019.43 1019.67 1019.87 1020.11 1020.34 1020.58 1020.79 1020.89 1021.01 1021.04 1021.03
1010.79 1010.93 1010.44 1009.47 1007.68 1004.87 1003.88 1001.66 1000.71 1000.86 1001.45 1002.52 1002.97 1005.04 1007.23 1007.60 1008.04 1008.62 1009.41 1010.54 1011.49 1012.23 1012.88 1013.43 1013.97 1014.46 1014.84 1015.37 1015.85 1016.24 1016.77 1017.25 1017.48 1017.79 1018.19 1018.54 1018.90 1019.21 1019.51 1019.79 1020.03 1020.27 1020.49 1020.71 1020.87 1020.96 1021.05 1021.07 1021.04
1010.72 1010.97 1010.30 1009.05 1007.73 1004.98 1003.46 1001.84 1000.79 1000.53 1000.70 1001.90 1002.10 1004.47 1006.52 1007.09 1007.84 1008.79 1009.78 1010.73 1011.56 1012.35 1012.97 1013.44 1013.93 1014.50 1014.99 1015.40 1015.84 1016.22 1016.62 1017.07 1017.47 1017.86 1018.17 1018.51 1018.86 1019.20 1019.50 1019.85 1020.14 1020.43 1020.68 1020.83 1020.98 1021.12 1021.23 1021.21 1021.16
1010.26 1010.87 1009.97 1008.86 1007.26 1004.66 1004.18 1003.36 1001.66 1000.25 1000.54 1001.37 1001.82 1002.70 1004.27 1006.37 1007.73 1008.87 1010.16 1011.17 1011.79 1012.53 1012.91 1013.31 1013.78 1014.41 1014.91 1015.42 1015.84 1016.29 1016.60 1016.99 1017.43 1017.81 1018.15 1018.49 1018.81 1019.18 1019.54 1019.80 1020.07 1020.32 1020.55 1020.88 1021.08 1021.19 1021.29 1021.33 1021.27
1010.30 1010.03 1008.78 1007.87 1006.67 1005.54 1004.97 1004.24 1003.10 1001.34 1000.89 1001.76 1002.46 1003.52 1004.87 1005.99 1007.46 1008.31 1009.51 1010.68 1011.41 1012.11 1012.70 1013.06 1013.54 1014.01 1014.66 1015.08 1015.75 1016.27 1016.61 1016.95 1017.29 1017.69 1018.13 1018.41 1018.68 1018.96 1019.21 1019.58 1019.84 1020.10 1020.39 1020.68 1020.95 1021.15 1021.25 1021.27 1021.24
1009.71 1009.17 1008.24 1007.15 1006.43 1005.79 1005.30 1004.36 1003.22 1002.77 1001.77 1001.93 1002.98 1004.17 1005.20 1006.08 1007.50 1008.22 1008.89 1009.67 1010.30 1011.29 1012.08 1012.57 1013.07 1013.52 1014.08 1014.52 1015.46 1016.01 1016.42 1016.81 1017.13 1017.46 1017.80 1018.15 1018.45 1018.75 1018.99 1019.37 1019.66 1020.02 1020.24 1020.52 1020.79 1021.02 1021.16 1021.18 1021.11
1009.85 1008.81 1008.09 1006.69 1006.21 1005.62 1005.23 1004.76 1003.45 1003.25 1002.67 1002.61 1002.39 1002.87 1004.10 1005.18 1006.49 1007.60 1008.34 1009.15 1010.12 1011.03 1011.60 1012.25 1012.61 1013.11 1013.55 1014.06 1014.83 1015.43 1015.94 1016.38 1016.79 1017.06 1017.39 1017.81 1018.25 1018.48 1018.87 1019.17 1019.50 1019.82 1020.00 1020.34 1020.54 1020.75 1020.82 1020.89 1020.79
1009.58 1008.89 1007.88 1006.60 1006.02 1005.39 1004.86 1004.58 1004.17 1003.13 1002.50 1003.21 1003.21 1003.93 1004.13 1004.23 1005.21 1006.37 1007.46 1008.42 1009.35 1010.31 1011.00 1011.71 1012.28 1012.62 1013.00 1013.67 1014.13 1014.71 1015.24 1015.73 1016.06 1016.51 1016.89 1017.17 1017.61 1017.90 1018.31 1018.62 1018.99 1019.35 1019.65 1019.84 1020.09 1020.29 1020.43 1020.53 1020.40
1009.67 1008.95 1007.92 1006.72 1005.67 1005.21 1004.92 1004.31 1004.10 1002.79 1002.72 1002.62 1003.98 1003.62 1004.12 1004.50 1004.90 1005.92 1006.71 1007.49 1008.36 1009.35 1010.22 1010.90 1011.64 1012.19 1012.43 1013.06 1013.57 1013.94 1014.44 1015.00 1015.51 1015.85 1016.14 1016.53 1016.90 1017.34 1017.54 1018.04 1018.32 1018.68 1019.00 1019.32 1019.55 1019.72 1019.92 1019.95 1019.95
1010.33 1009.49 1007.85 1006.51 1005.51 1004.82 1004.76 1003.86 1003.65 1003.20 1002.83 1002.75 1003.26 1004.00 1003.63 1003.84 1004.51 1004.87 1005.37 1006.15 1006.95 1007.94 1009.01 1010.18 1010.86 1011.51 1012.06 1012.53 1012.99 1013.34 1013.77 1014.34 1014.83 1015.09 1015.48 1015.85 1016.21 1016.64 1016.82 1017.17 1017.67 1017.91 1018.23 1018.58 1018.97 1019.26 1019.34 1019.61 1019.55
1011.20 1009.98 1008.32 1006.01 1005.81 1004.70 1004.87 1003.33 1003.23 1003.52 1003.09 1002.84 1002.86 1003.28 1003.66 1003.26 1003.25 1003.78 1004.43 1005.25 1006.16 1007.12 1008.04 1009.03 1010.02 1010.86 1011.47 1011.95 1012.44 1012.65 1013.10 1013.64 1014.06 1014.53 1014.86 1015.10 1015.44 1015.81 1016.35 1016.57 1016.90 1017.28 1017.58 1018.00 1018.33 1018.73 1019.08 1019.14 1019.21
1011.62 1010.12 1008.50 1006.83 1005.76 1005.27 1004.50 1003.53 1003.27 1003.28 1003.21 1003.05 1002.43 1002.35 1002.92 1003.21 1002.65 1002.67 1003.14 1003.92 1004.91 1006.02 1007.12 1008.21 1009.05 1009.94 1010.76 1011.39 1011.91 1012.14 1012.38 1012.97 1013.29 1013.84 1014.15 1014.57 1014.82 1015.09 1015.56 1015.88 1016.15 1016.55 1017.10 1017.26 1017.84 1018.20 1018.41 1018.78 1018.84
1011.70 1010.51 1009.00 1007.24 1006.23 1005.37 1004.47 1003.60 1003.54 1003.01 1002.84 1002.56 1002.61 1002.15 1001.91 1002.13 1002.12 1001.71 1002.13 1002.68 1003.63 1004.81 1005.95 1007.07 1008.16 1009.11 1010.03 1010.87 1011.44 1011.85 1012.12 1012.36 1012.72 1012.98 1013.37 1013.82 1014.26 1014.63 1015.02 1015.37 1015.60 1015.90 1016.56 1016.89 1017.22 1017.47 1017.84 1017.94 1018.21
1011.91 1010.80 1009.15 1007.29 1006.81 1005.96 1004.70 1004.05 1003.24 1002.69 1002.09 1001.94 1001.96 1002.03 1001.56 1001.34 1001.18 1000.64 1001.07 1001.53 1002.54 1003.64 1004.91 1005.99 1007.12 1008.30 1009.33 1010.02 1010.61 1011.13 1011.25 1011.65 1012.08 1012.43 1012.46 1012.97 1013.33 1013.86 1014.33 1014.74 1015.24 1015.39 1015.78 1016.02 1016.48 1016.96 1017.41 1017.65 1017.76
1011.27 1010.39 1008.70 1007.85 1007.28 1006.55 1005.27 1003.97 1002.88 1002.22 1001.41 1001.00 1000.94 1001.07 1000.99 1000.62 1000.44 1000.29 1000.07 1000.63 1001.26 1002.57 1003.71 1004.85 1005.85 1006.94 1008.06 1008.98 1009.57 1010.16 1010.72 1011.16 1011.49 1011.80 1011.89 1012.12 1012.55 1013.00 1013.47 1013.99 1014.46 1014.86 1015.32 1015.53 1015.82 1016.33 1016.94 1017.04 1017.33
1010.37 1009.59 1008.88 1007.76 1007.34 1006.09 1005.51 1004.17 1003.33 1001.67 1000.63 1000.07 999.87 999.88 1000.13 1000.29 999.80 999.58 999.81 999.82 1000.38 1001.34 1002.63 1003.69 1004.50 1005.41 1006.43 1007.60 1008.96 1009.90 1010.49 1010.85 1011.13 1011.02 1011.08 1011.16 1011.62 1012.08 1012.53 1012.97 1013.66 1014.14 1014.55 1014.90 1015.06 1015.42 1015.85 1016.33 1016.87
1009.44 1009.19 1008.65 1007.77 1007.52 1006.15 1005.75 1004.33 1003.62 1002.27 1000.56 999.92 999.39 999.57 999.58 999.97 999.57 999.28 998.95 999.64 999.51 1000.28 1001.01 1002.10 1003.18 1004.15 1005.00 1006.13 1007.45 1008.38 1008.96 1009.35 1009.16 1009.58 1010.05 1010.48 1010.72 1011.11 1011.44 1011.92 1012.64 1013.25 1013.73 1014.03 1014.25 1014.59 1014.93 1015.59 1016.11
1009.77 1008.72 1008.11 1007.47 1007.26 1006.33 1005.91 1005.40 1003.30 1002.76 1001.52 999.89 999.54 999.34 999.14 999.43 999.40 998.80 998.62 998.53 999.34 999.23 999.98 1000.80 1001.74 1002.76 1003.83 1005.05 1005.78 1006.81 1007.73 1008.18 1008.64 1009.22 1009.53 1009.82 1010.07 1010.33 1010.55 1011.05 1011.66 1012.12 1012.61 1013.03 1013.43 1013.80 1014.09 1014.44 1014.92
1010.11 1009.16 1008.01 1007.24 1007.18 1006.37 1005.73 1005.28 1003.71 1002.83 1001.62 1000.33 999.57 999.29 999.05 999.41 999.28 998.45 998.11 998.25 998.38 999.53 1000.17 1000.36 1001.36 1002.29 1003.02 1003.88 1004.72 1005.48 1006.16 1006.93 1007.72 1008.24 1008.57 1008.81 1009.08 1009.46 1009.89 1010.19 1010.56 1010.99 1011.53 1011.82 1012.16 1012.65 1013.20 1013.49 1013.92
1009.92 1009.74 1008.59 1007.88 1007.15 1005.95 1005.43 1004.83 1003.17 1002.43 1001.46 1000.92 1000.51 999.84 999.53 999.22 998.98 998.85 997.91 998.22 998.71 999.11 1000.39 1000.68 1001.08 1001.71 1002.33 1002.95 1003.53 1004.18 1004.72 1005.31 1005.79 1006.39 1006.96 1007.64 1008.09 1008.42 1008.58 1008.92 1009.54 1009.92 1010.21 1010.74 1011.38 1011.89 1012.20 1012.51 1012.88
1009.83 1010.63 1010.48 1008.65 1007.86 1006.73 1005.67 1004.28 1003.04 1002.38 1001.32 1000.61 1000.39 1000.06 999.85 999.48 999.25 998.72 997.90 997.99 998.23 998.83 999.49 1000.17 1001.00 1001.56 1002.03 1002.38 1002.73 1003.13 1003.53 1004.23 1004.73 1005.24 1005.72 1006.13 1006.51 1006.77 1007.25 1007.78 1008.24 1008.71 1009.22 1009.83 1010.32 1010.68 1011.04 1011.41 1011.72
1010.12 1009.80 1009.80 1009.71 1008.75 1007.52 1006.30 1004.98 1003.74 1002.24 1001.44 1000.69 1000.26 999.87 1000.00 999.67 999.42 999.17 998.99 998.29 998.26 998.80 999.53 999.89 1000.00 1000.59 1001.69 1001.75 1002.41 1003.04 1003.40 1003.83 1004.11 1004.55 1004.88 1005.11 1005.41 1005.78 1006.20 1006.68 1007.16 1007.55 1008.11 1008.71 1009.23 1009.55 1009.75 1010.28 1010.60
1011.02 1010.08 1010.29 1010.35 1010.31 1009.01 1007.50 1005.86 1004.61 1003.23 1002.28 1001.75 1001.00 1000.36 1000.02 999.95 999.68 999.27 999.60 999.37 998.86 999.00 999.07 999.92 1000.07 1000.25 1000.65 1001.53 1002.35 1002.58 1003.03 1003.35 1003.62 1003.99 1004.34 1004.54 1004.68 1004.89 1005.14 1005.62 1006.06 1006.50 1007.08 1007.55 1008.16 1008.57 1008.85 1009.26 1009.46
1010.79 1012.38 1012.05 1011.89 1012.01 1011.56 1010.41 1007.17 1004.67 1004.29 1004.50 1003.71 1003.28 1003.13 1002.13 1001.26 1000.97 999.94 999.62 999.57 999.60 999.74 999.82 999.66 999.29 999.68 1000.30 1000.75 1001.21 1001.90 1002.72 1003.29 1003.47 1003.48 1003.47 1003.63 1003.85 1004.03 1004.31 1004.67 1005.08 1005.41 1005.89 1006.55 1007.13 1007.36 1007.87 1008.28 1008.55
1013.35 1014.30 1014.70 1014.48 1014.11 1013.18 1012.22 1009.20 1006.18 1006.29 1006.10 1005.11 1004.21 1003.32 1003.04 1002.23 1001.98 1001.47 1001.11 1000.61 999.90 1000.15 1000.43 1000.70 1000.82 1000.60 1000.56 1001.30 1001.58 1002.02 1002.35 1002.74 1002.96 1002.97 1002.83 1002.91 1003.00 1003.10 1003.34 1003.66 1004.13 1004.54 1004.85 1005.23 1005.82 1006.33 1006.75 1007.26 1007.56
Thickness
5815 5816 5813 5805 5771 5773 5775 5790 5814 5817 5830 5844 5849 5831 5810 5816 5803 5766 5805 5806 5796 5785 5779 5775 5772 5768 5762 5755 5750 5745 5743 5739 5736 5733 5729 5726 5724 5722 5721 5719 5718 5717 5717 5717 5716 5715 5714 5713 5713
5815 5818 5809 5797 5761 5753 5774 5813 5807 5827 5844 5845 5845 5832 5819 5800 5821 5801 5800 5800 5801 5790 5782 5777 5773 5768 5763 5756 5751 5746 5743 5741 5737 5734 5729 5727 5724 5722 5720 5719 5719 5718 5716 5716 5715 5715 5714 5713 5714
5814 5814 5786 5774 5764 5757 5775 5815 5819 5835 5848 5848 5833 5840 5824 5807 5818 5812 5812 5803 5801 5793 5785 5780 5774 5769 5764 5758 5753 5747 5743 5741 5738 5735 5731 5729 5726 5724 5722 5721 5720 5718 5718 5717 5715 5714 5714 5714 5714
5803 5798 5792 5765 5766 5797 5808 5819 5839 5840 5844 5849 5839 5815 5831 5841 5830 5823 5814 5808 5800 5794 5787 5781 5776 5771 5765 5761 5754 5750 5745 5742 5739 5736 5733 5730 5728 5725 5723 5722 5721 5719 5719 5717 5716 5716 5716 5716 5714
5801 5788 5759 5762 5782 5809 5828 5824 5848 5843 5847 5834 5840 5809 5811 5830 5837 5827 5817 5811 5802 5794 5787 5781 5777 5772 5767 5763 5757 5751 5747 5744 5742 5738 5735 5732 5729 5727 5724 5723 5722 5720 5719 5718 5716 5715 5716 5716 5715
5767 5775 5748 5743 5776 5814 5827 5853 5858 5853 5845 5836 5829 5817 5809 5830 5829 5826 5822 5813 5804 5797 5789 5782 5778 5773 5768 5764 5759 5755 5750 5747 5744 5740 5737 5735 5732 5729 5726 5724 5723 5722 5720 5719 5717 5717 5716 5716 5716
5760 5749 5744 5756 5779 5806 5819 5853 5861 5855 5842 5833 5848 5814 5811 5821 5828 5829 5823 5814 5806 5797 5791 5785 5779 5774 5770 5765 5761 5757 5753 5749 5747 5744 5740 5737 5734 5731 5728 5726 5725 5723 5723 5721 5720 5719 5719 5719 5719
5761 5751 5751 5763 5773 5796 5828 5851 5866 5862 5853 5858 5857 5814 5804 5824 5831 5827 5821 5812 5806 5799 5793 5787 5781 5775 5771 5766 5762 5759 5755 5752 5749 5746 5743 5740 5737 5734 5731 5728 5726 5724 5723 5723 5722 5721 5720 5720 5721
5769 5730 5735 5757 5775 5806 5816 5805 5848 5875 5865 5854 5855 5847 5846 5837 5831 5822 5813 5805 5802 5798 5795 5790 5784 5778 5773 5768 5763 5759 5757 5753 5750 5747 5745 5742 5740 5736 5733 5731 5729 5728 5726 5724 5723 5722 5722 5721 5722
5743 5728 5752 5781 5793 5799 5800 5800 5819 5842 5849 5840 5838 5845 5843 5838 5826 5819 5813 5804 5802 5798 5796 5794 5789 5783 5776 5771 5766 5761 5757 5755 5752 5749 5746 5744 5742 5740 5737 5734 5733 5731 5729 5727 5725 5723 5723 5723 5723
5745 5736 5768 5783 5795 5799 5794 5800 5821 5816 5826 5835 5825 5828 5831 5829 5821 5817 5816 5813 5809 5805 5801 5798 5793 5788 5782 5777 5769 5764 5760 5757 5754 5752 5749 5746 5744 5742 5740 5738 5735 5733 5731 5729 5727 5725 5723 5723 5723
5723 5748 5760 5782 5789 5790 5788 5801 5806 5812 5823 5838 5843 5842 5835 5829 5823 5819 5816 5815 5809 5805 5803 5799 5797 5792 5786 5782 5775 5769 5764 5760 5757 5755 5752 5749 5747 5744 5742 5739 5737 5735 5733 5731 5729 5728 5726 5725 5725
5725 5739 5752 5773 5781 5788 5790 5790 5794 5806 5828 5830 5830 5828 5829 5834 5831 5828 5824 5820 5815 5807 5805 5802 5799 5796 5790 5786 5780 5775 5770 5766 5762 5759 5756 5754 5751 5748 5745 5743 5740 5738 5736 5734 5732 5730 5728 5727 5728
5730 5732 5740 5759 5772 5781 5773 5786 5793 5812 5824 5829 5812 5818 5826 5827 5829 5824 5824 5823 5819 5814 5809 5806 5801 5798 5794 5790 5785 5781 5776 5771 5767 5763 5761 5758 5755 5753 5750 5747 5744 5741 5739 5736 5735 5733 5732 5731 5730
5714 5710 5729 5747 5763 5773 5776 5769 5777 5804 5812 5815 5812 5807 5824 5826 5825 5828 5830 5829 5828 5822 5817 5807 5804 5801 5797 5793 5790 5785 5781 5775 5771 5769 5766 5762 5759 5757 5755 5752 5748 5746 5743 5741 5738 5735 5734 5732 5731
5683 5694 5696 5749 5753 5769 5760 5747 5787 5794 5796 5802 5808 5804 5810 5822 5827 5831 5831 5830 5832 5824 5820 5814 5808 5802 5799 5797 5792 5790 5786 5781 5776 5772 5770 5767 5764 5761 5757 5755 5753 5750 5748 5744 5741 5739 5735 5734 5733
5666 5662 5688 5717 5744 5746 5742 5740 5775 5787 5787 5789 5804 5806 5802 5810 5822 5830 5836 5832 5833 5830 5821 5815 5811 5804 5800 5798 5795 5792 5790 5785 5782 5778 5774 5771 5769 5766 5762 5759 5758 5755 5750 5749 5745 5742 5740 5736 5735
5647 5654 5670 5689 5722 5730 5732 5731 5752 5777 5778 5784 5788 5800 5807 5803 5813 5829 5831 5835 5833 5831 5826 5817 5812 5806 5801 5797 5794 5791 5790 5788 5785 5783 5780 5777 5773 5769 5766 5764 5762 5759 5755 5751 5748 5746 5744 5742 5739
5633 5636 5653 5685 5700 5703 5714 5721 5741 5757 5771 5774 5776 5784 5800 5803 5817 5832 5832 5831 5829 5827 5824 5820 5812 5807 5800 5796 5792 5789 5788 5790 5788 5785 5784 5781 5777 5774 5770 5766 5764 5762 5759 5758 5753 5749 5744 5741 5740
5619 5621 5639 5662 5679 5682 5689 5692 5727 5743 5756 5771 5782 5781 5790 5806 5808 5819 5829 5828 5824 5821 5823 5822 5816 5810 5803 5798 5795 5791 5788 5788 5788 5787 5785 5783 5780 5776 5773 5770 5766 5764 5759 5757 5755 5750 5744 5743 5740
5602 5606 5623 5637 5656 5673 5674 5677 5698 5736 5753 5765 5777 5789 5789 5795 5807 5811 5817 5820 5821 5815 5817 5819 5821 5814 5809 5802 5791 5784 5782 5783 5782 5784 5784 5786 5783 5780 5776 5772 5768 5764 5762 5758 5757 5753 5749 5744 5739
5578 5607 5610 5624 5622 5627 5665 5634 5677 5709 5735 5749 5765 5775 5781 5783 5797 5806 5812 5811 5816 5811 5813 5819 5819 5816 5810 5805 5793 5786 5782 5781 5791 5788 5786 5784 5783 5782 5780 5776 5770 5766 5763 5761 5758 5755 5752 5745 5738
5555 5590 5600 5611 5608 5621 5629 5619 5663 5692 5703 5735 5748 5758 5777 5784 5786 5795 5805 5813 5812 5814 5810 5811 5812 5813 5810 5802 5798 5790 5784 5785 5786 5783 5781 5780 5780 5780 5779 5776 5772 5768 5765 5762 5759 5755 5751 5748 5744
5564 5570 5585 5596 5600 5586 5619 5624 5640 5670 5693 5725 5744 5753 5770 5777 5779 5793 5803 5808 5809 5802 5799 5802 5797 5797 5801 5801 5796 5791 5789 5786 5780 5779 5779 5780 5779 5778 5776 5776 5774 5771 5767 5764 5761 5756 5751 5748 5744
5562 5556 5555 5563 5572 5578 5622 5615 5632 5671 5697 5706 5716 5731 5746 5758 5766 5769 5787 5792 5795 5792 5784 5784 5786 5784 5788 5795 5796 5793 5791 5789 5786 5783 5781 5777 5776 5776 5777 5776 5772 5770 5769 5764 5758 5753 5750 5748 5744
5553 5543 5533 5549 5560 5578 5613 5604 5619 5671 5693 5705 5714 5722 5729 5739 5748 5759 5775 5782 5791 5788 5783 5778 5770 5769 5773 5776 5789 5791 5791 5787 5784 5781 5780 5780 5779 5780 5780 5776 5774 5771 5767 5763 5759 5755 5751 5748 5745
5549 5545 5561 5548 5566 5574 5592 5610 5630 5661 5683 5696 5704 5721 5722 5729 5737 5743 5754 5764 5771 5773 5770 5772 5770 5766 5757 5767 5772 5775 5778 5777 5777 5776 5776 5776 5777 5778 5777 5775 5772 5770 5766 5761 5757 5754 5752 5747 5745
5539 5555 5537 5545 5537 5552 5578 5596 5605 5643 5670 5687 5693 5703 5715 5722 5726 5730 5730 5737 5745 5754 5762 5759 5758 5758 5758 5753 5752 5755 5761 5767 5767 5766 5767 5769 5770 5771 5772 5771 5769 5766 5762 5759 5754 5751 5750 5745 5745
5543 5513 5530 5534 5526 5523 5522 5567 5626 5641 5632 5638 5643 5643 5659 5680 5686 5707 5718 5724 5728 5731 5739 5746 5753 5753 5749 5752 5753 5750 5747 5746 5750 5754 5760 5763 5763 5763 5762 5764 5764 5762 5759 5754 5749 5748 5744 5741 5740
5517 5505 5505 5505 5511 5519 5517 5546 5618 5607 5602 5612 5621 5638 5648 5658 5664 5677 5684 5697 5712 5712 5713 5714 5722 5731 5737 5735 5736 5736 5739 5741 5742 5743 5749 5755 5757 5757 5757 5755 5755 5755 5755 5753 5748 5744 5741 5736 5734